Change the Weather History Date:

Monday, February 10, 2014

  Actual Average (KWRI) Record (KWRI)
Temperature  
Mean Temperature 22 °F -  
Max Temperature 28 °F 41 °F 64 °F (2001)
Min Temperature 14 °F 23 °F 14 °F (2013)
Degree Days  
Heating Degree Days 44    
Moisture  
Dew Point 11 °F    
Average Humidity 59    
Maximum Humidity 92    
Minimum Humidity 43    
Precipitation  
Precipitation 0.00 in - - ()
Sea Level Pressure  
Sea Level Pressure 30.18 in    
Wind  
Wind Speed 7 mph (WNW)    
Max Wind Speed 12 mph    
Max Gust Speed 22 mph    
Visibility 9 miles    
Events      
Averages and records for this station are not official NWS values.
T = Trace of Precipitation, MM = Missing Value Source: NWS Daily Summary

Daily Weather History Graph

Daily Weather History Graph

Search for Another Location

Airport or City:

Trip Planner

Search our weather history database for the weather conditions in past years. The results will help you decide how hot, cold, wet, or windy it might be!

Date:

Astronomy

Feb. 10, 2014 Rise Set
Actual Time 6:58 AM EST 5:29 PM EST
Civil Twilight 6:30 AM EST 5:57 PM EST
Nautical Twilight 5:58 AM EST 6:29 PM EST
Astronomical Twilight 5:26 AM EST 7:00 PM EST
Moon 1:56 PM EST (2/10) 3:49 AM EST (2/10)
Length of Visible Light 11h 27m
Length of Day
10h 31m
Waxing Gibbous, 84% of the Moon is Illuminated
Feb 10
Waxing Gibbous
Feb 14
Full
Feb 22
Last Quarter
Mar 1
New
Mar 8
First Quarter

Hourly Weather History & Observations

Time (EST) Temp. Windchill Dew Point Humidity Pressure Visibility Wind Dir Wind Speed Gust Speed Precip Events Conditions
12:09 AM 25.0 °F 18.1 °F 23.0 °F 92% 30.04 in 4.0 mi West 5.8 mph - N/A   Scattered Clouds
12:54 AM 24.1 °F 18.2 °F 21.9 °F 91% 30.05 in 4.0 mi West 4.6 mph - N/A   Clear
1:54 AM 24.1 °F 18.2 °F 19.9 °F 84% 30.05 in 5.0 mi WNW 4.6 mph - N/A   Clear
2:54 AM 25.0 °F 18.1 °F 19.9 °F 81% 30.07 in 7.0 mi WNW 5.8 mph - N/A   Partly Cloudy
3:54 AM 25.0 °F 15.5 °F 17.1 °F 72% 30.07 in 9.0 mi WNW 9.2 mph - N/A   Clear
4:54 AM 23.0 °F 13.1 °F 14.0 °F 68% 30.11 in 10.0 mi NW 9.2 mph - N/A   Clear
5:54 AM 21.9 °F 13.4 °F 12.9 °F 68% 30.14 in 10.0 mi WNW 6.9 mph - N/A   Clear
6:54 AM 19.9 °F 11.1 °F 10.0 °F 65% 30.17 in 10.0 mi NW 6.9 mph - N/A   Clear
7:54 AM 21.0 °F 9.9 °F 9.0 °F 60% 30.19 in 10.0 mi NW 10.4 mph 17.3 mph N/A   Clear
8:54 AM 21.9 °F 11.0 °F 8.1 °F 55% 30.20 in 10.0 mi NNW 10.4 mph 21.9 mph N/A   Clear
9:54 AM 23.0 °F 11.7 °F 8.1 °F 53% 30.21 in 10.0 mi NW 11.5 mph - N/A   Clear
10:54 AM 24.1 °F 14.4 °F 8.1 °F 51% 30.22 in 10.0 mi NNW 9.2 mph - N/A   Clear
11:54 AM 26.1 °F 17.6 °F 9.0 °F 49% 30.20 in 10.0 mi NW 8.1 mph - N/A   Clear
12:54 PM 27.0 °F 18.7 °F 9.0 °F 47% 30.19 in 10.0 mi NW 8.1 mph - N/A   Clear
1:54 PM 26.1 °F 16.2 °F 7.0 °F 44% 30.17 in 10.0 mi WNW 10.4 mph 17.3 mph N/A   Clear
2:54 PM 27.0 °F 20.5 °F 9.0 °F 47% 30.17 in 10.0 mi Variable 5.8 mph - N/A   Partly Cloudy
3:54 PM 28.0 °F 20.0 °F 8.1 °F 43% 30.19 in 10.0 mi West 8.1 mph - N/A   Clear
4:54 PM 27.0 °F 19.5 °F 7.0 °F 43% 30.20 in 10.0 mi NW 6.9 mph - N/A   Clear
5:54 PM 26.1 °F 19.4 °F 6.1 °F 43% 30.23 in 10.0 mi WNW 5.8 mph - N/A   Clear
6:54 PM 25.0 °F 19.3 °F 5.0 °F 43% 30.25 in 10.0 mi WNW 4.6 mph - N/A   Clear
7:54 PM 24.1 °F 18.2 °F 6.1 °F 46% 30.26 in 10.0 mi WNW 4.6 mph - N/A   Clear
8:54 PM 23.0 °F 17.0 °F 6.1 °F 48% 30.28 in 10.0 mi WNW 4.6 mph - N/A   Clear
9:54 PM 21.0 °F 16.2 °F 6.1 °F 53% 30.30 in 10.0 mi WNW 3.5 mph - N/A   Clear
10:54 PM 15.1 °F - 6.1 °F 68% 30.30 in 10.0 mi Calm Calm - N/A   Clear
11:54 PM 14.0 °F 8.2 °F 6.1 °F 71% 30.31 in 10.0 mi WNW 3.5 mph - N/A   Clear